Time,TemperatureF,DewpointF,PressureIn,WindDirection,WindDirectionDegrees,WindSpeedMPH,WindSpeedGustMPH,Humidity,HourlyPrecipIn,Conditions,Clouds,dailyrainin,SoftwareType,DateUTC
2013-03-11 00:02:00,21.2,2.2,23.59,East,97,0.0,0.0,43,0.00,,---,0.00,VWS V14.00,2013-03-11 07:02:00,
2013-03-11 00:07:00,21.2,2.2,23.59,East,97,0.0,0.0,43,0.00,,---,0.00,VWS V14.00,2013-03-11 07:07:00,
2013-03-11 00:12:00,21.0,2.0,23.56,East,97,0.0,0.0,43,0.00,,---,0.00,VWS V14.00,2013-03-11 07:12:00,
2013-03-11 00:17:00,20.7,1.7,23.56,East,97,0.0,0.0,43,0.00,,---,0.00,VWS V14.00,2013-03-11 07:17:00,
2013-03-11 00:22:00,20.5,1.5,23.56,East,97,0.0,0.0,43,0.00,,---,0.00,VWS V14.00,2013-03-11 07:22:00,
2013-03-11 00:27:00,20.3,1.4,23.56,East,97,0.0,0.0,43,0.00,,---,0.00,VWS V14.00,2013-03-11 07:27:00,
2013-03-11 00:33:00,20.3,1.9,23.56,East,97,0.0,2.7,44,0.00,,---,0.00,VWS V14.00,2013-03-11 07:33:00,
2013-03-11 00:38:00,19.9,1.5,23.56,ENE,78,0.0,0.0,44,0.00,,---,0.00,VWS V14.00,2013-03-11 07:38:00,
2013-03-11 00:43:00,19.9,1.5,23.56,ENE,78,0.0,0.0,44,0.00,,---,0.00,VWS V14.00,2013-03-11 07:43:00,
2013-03-11 00:48:00,19.8,1.4,23.56,ENE,78,0.0,0.0,44,0.00,,---,0.00,VWS V14.00,2013-03-11 07:48:00,
2013-03-11 00:53:00,19.6,1.2,23.56,ENE,78,0.0,0.0,44,0.00,,---,0.00,VWS V14.00,2013-03-11 07:53:00,
2013-03-11 00:59:00,19.4,1.1,23.56,ENE,78,0.0,0.0,44,0.00,,---,0.00,VWS V14.00,2013-03-11 07:59:00,
2013-03-11 01:04:00,19.0,0.7,23.56,ENE,78,0.0,0.0,44,0.00,,---,0.00,VWS V14.00,2013-03-11 08:04:00,
2013-03-11 01:09:00,18.7,0.4,23.56,ENE,78,0.0,0.0,44,0.00,,---,0.00,VWS V14.00,2013-03-11 08:09:00,
2013-03-11 01:14:00,18.7,0.4,23.56,ENE,78,0.0,0.0,44,0.00,,---,0.00,VWS V14.00,2013-03-11 08:14:00,
2013-03-11 01:19:00,18.5,0.2,23.56,ENE,78,0.0,0.0,44,0.00,,---,0.00,VWS V14.00,2013-03-11 08:19:00,
2013-03-11 01:24:00,18.3,0.1,23.56,ENE,78,0.0,0.0,44,0.00,,---,0.00,VWS V14.00,2013-03-11 08:24:00,
2013-03-11 01:29:00,18.1,-0.1,23.56,ENE,78,0.0,0.0,44,0.00,,---,0.00,VWS V14.00,2013-03-11 08:29:00,
2013-03-11 01:34:00,18.0,-0.3,23.56,ENE,78,0.0,0.0,44,0.00,,---,0.00,VWS V14.00,2013-03-11 08:34:00,
2013-03-11 01:40:00,17.8,-0.4,23.56,ENE,78,0.0,0.0,44,0.00,,---,0.00,VWS V14.00,2013-03-11 08:40:00,
2013-03-11 01:45:00,17.6,-0.1,23.56,ENE,78,0.0,0.0,45,0.00,,---,0.00,VWS V14.00,2013-03-11 08:45:00,
2013-03-11 01:50:00,17.6,-0.1,23.56,ENE,78,0.0,0.0,45,0.00,,---,0.00,VWS V14.00,2013-03-11 08:50:00,
2013-03-11 01:55:00,17.4,-0.3,23.56,ENE,78,0.0,0.0,45,0.00,,---,0.00,VWS V14.00,2013-03-11 08:55:00,
2013-03-11 02:00:00,17.2,-0.4,23.56,ENE,78,0.0,0.0,45,0.00,,---,0.00,VWS V14.00,2013-03-11 09:00:00,
2013-03-11 02:05:00,17.1,-0.6,23.56,ENE,78,0.0,0.0,45,0.00,,---,0.00,VWS V14.00,2013-03-11 09:05:00,
2013-03-11 02:10:00,17.1,-0.6,23.56,ENE,78,0.0,0.0,45,0.00,,---,0.00,VWS V14.00,2013-03-11 09:10:00,
2013-03-11 02:16:00,16.9,-0.8,23.56,ENE,78,0.0,0.0,45,0.00,,---,0.00,VWS V14.00,2013-03-11 09:16:00,
2013-03-11 02:21:00,16.9,-0.8,23.56,ENE,78,0.0,0.0,45,0.00,,---,0.00,VWS V14.00,2013-03-11 09:21:00,
2013-03-11 02:26:00,16.7,-0.9,23.56,ENE,78,0.0,0.0,45,0.00,,---,0.00,VWS V14.00,2013-03-11 09:26:00,
2013-03-11 02:32:00,16.5,-1.1,23.56,ENE,78,0.0,0.0,45,0.00,,---,0.00,VWS V14.00,2013-03-11 09:32:00,
2013-03-11 02:37:00,16.2,-1.4,23.56,ENE,78,0.0,0.0,45,0.00,,---,0.00,VWS V14.00,2013-03-11 09:37:00,
2013-03-11 02:42:00,16.2,-1.4,23.54,ENE,78,0.0,0.0,45,0.00,,---,0.00,VWS V14.00,2013-03-11 09:42:00,
2013-03-11 02:47:00,16.0,-1.6,23.54,ENE,78,0.0,0.0,45,0.00,,---,0.00,VWS V14.00,2013-03-11 09:47:00,
2013-03-11 02:52:00,15.8,-1.8,23.54,ENE,78,0.0,0.0,45,0.00,,---,0.00,VWS V14.00,2013-03-11 09:52:00,
2013-03-11 02:57:00,15.8,-1.8,23.54,ENE,78,0.0,0.0,45,0.00,,---,0.00,VWS V14.00,2013-03-11 09:57:00,
2013-03-11 03:03:00,15.8,-1.8,23.54,ENE,78,0.0,0.0,45,0.00,,---,0.00,VWS V14.00,2013-03-11 10:03:00,
2013-03-11 03:08:00,15.4,-2.1,23.54,ENE,78,0.0,0.0,45,0.00,,---,0.00,VWS V14.00,2013-03-11 10:08:00,
2013-03-11 03:13:00,15.3,-2.3,23.54,ENE,78,0.0,0.0,45,0.00,,---,0.00,VWS V14.00,2013-03-11 10:13:00,
2013-03-11 03:18:00,15.1,-2.4,23.54,ENE,78,0.0,0.0,45,0.00,,---,0.00,VWS V14.00,2013-03-11 10:18:00,
2013-03-11 03:23:00,15.1,-2.4,23.54,ENE,78,0.0,0.0,45,0.00,,---,0.00,VWS V14.00,2013-03-11 10:23:00,
2013-03-11 03:28:00,15.1,-2.4,23.54,ENE,78,0.0,0.0,45,0.00,,---,0.00,VWS V14.00,2013-03-11 10:28:00,
2013-03-11 03:33:00,14.9,-2.6,23.54,ENE,78,0.0,0.0,45,0.00,,---,0.00,VWS V14.00,2013-03-11 10:33:00,
2013-03-11 03:39:00,14.9,-2.6,23.54,ENE,78,0.0,0.0,45,0.00,,---,0.00,VWS V14.00,2013-03-11 10:39:00,
2013-03-11 03:44:00,14.7,-2.8,23.54,ENE,78,0.0,0.0,45,0.00,,---,0.00,VWS V14.00,2013-03-11 10:44:00,
2013-03-11 03:49:00,14.5,-2.5,23.54,ENE,78,0.0,0.0,46,0.00,,---,0.00,VWS V14.00,2013-03-11 10:49:00,
2013-03-11 03:54:00,14.4,-3.1,23.54,ENE,78,0.0,0.0,45,0.00,,---,0.00,VWS V14.00,2013-03-11 10:54:00,
2013-03-11 03:59:00,14.4,-2.6,23.54,ENE,78,0.0,0.0,46,0.00,,---,0.00,VWS V14.00,2013-03-11 10:59:00,
2013-03-11 04:05:00,14.2,-2.8,23.54,ENE,78,0.0,0.0,46,0.00,,---,0.00,VWS V14.00,2013-03-11 11:05:00,
2013-03-11 04:10:00,14.2,-2.8,23.54,ENE,78,0.0,0.0,46,0.00,,---,0.00,VWS V14.00,2013-03-11 11:10:00,
2013-03-11 04:15:00,14.2,-2.8,23.54,ENE,78,0.0,0.0,46,0.00,,---,0.00,VWS V14.00,2013-03-11 11:15:00,
2013-03-11 04:20:00,14.0,-3.0,23.54,ENE,78,0.0,0.0,46,0.00,,---,0.00,VWS V14.00,2013-03-11 11:20:00,
2013-03-11 04:26:00,13.8,-3.1,23.54,ENE,78,0.0,0.0,46,0.00,,---,0.00,VWS V14.00,2013-03-11 11:26:00,
2013-03-11 04:31:00,13.8,-3.1,23.54,ENE,78,0.0,0.0,46,0.00,,---,0.00,VWS V14.00,2013-03-11 11:31:00,
2013-03-11 04:36:00,13.6,-3.3,23.54,ENE,78,0.0,0.0,46,0.00,,---,0.00,VWS V14.00,2013-03-11 11:36:00,
2013-03-11 04:41:00,13.6,-3.3,23.54,ENE,78,0.0,0.0,46,0.00,,---,0.00,VWS V14.00,2013-03-11 11:41:00,
2013-03-11 04:47:00,13.5,-3.5,23.54,ENE,78,0.0,0.0,46,0.00,,---,0.00,VWS V14.00,2013-03-11 11:47:00,
2013-03-11 04:52:00,13.3,-3.6,23.54,ENE,78,0.0,0.0,46,0.00,,---,0.00,VWS V14.00,2013-03-11 11:52:00,
2013-03-11 04:57:00,13.3,-3.6,23.54,ENE,78,0.0,0.0,46,0.00,,---,0.00,VWS V14.00,2013-03-11 11:57:00,
2013-03-11 05:02:00,13.3,-3.6,23.54,ENE,78,0.0,0.0,46,0.00,,---,0.00,VWS V14.00,2013-03-11 12:02:00,
2013-03-11 05:07:00,13.3,-3.6,23.54,ENE,78,0.0,0.0,46,0.00,,---,0.00,VWS V14.00,2013-03-11 12:07:00,
2013-03-11 05:12:00,13.1,-3.8,23.54,ENE,78,0.0,0.0,46,0.00,,---,0.00,VWS V14.00,2013-03-11 12:12:00,
2013-03-11 05:18:00,12.9,-4.0,23.54,ENE,78,0.0,0.0,46,0.00,,---,0.00,VWS V14.00,2013-03-11 12:18:00,
2013-03-11 05:23:00,12.7,-4.1,23.54,ENE,78,0.0,0.0,46,0.00,,---,0.00,VWS V14.00,2013-03-11 12:23:00,
2013-03-11 05:28:00,12.7,-4.1,23.54,ENE,78,0.0,0.0,46,0.00,,---,0.00,VWS V14.00,2013-03-11 12:28:00,
2013-03-11 05:33:00,12.7,-4.1,23.54,ENE,78,0.0,0.0,46,0.00,,---,0.00,VWS V14.00,2013-03-11 12:33:00,
2013-03-11 05:38:00,12.7,-4.1,23.54,ENE,78,0.0,0.0,46,0.00,,---,0.00,VWS V14.00,2013-03-11 12:38:00,
2013-03-11 05:43:00,12.6,-4.3,23.56,ENE,78,0.0,0.0,46,0.00,,---,0.00,VWS V14.00,2013-03-11 12:43:00,
2013-03-11 05:49:00,12.6,-4.3,23.56,ENE,78,0.0,0.0,46,0.00,,---,0.00,VWS V14.00,2013-03-11 12:49:00,
2013-03-11 05:54:00,12.2,-4.6,23.56,ENE,78,0.0,0.0,46,0.00,,---,0.00,VWS V14.00,2013-03-11 12:54:00,
2013-03-11 05:59:00,12.2,-4.6,23.56,ENE,78,0.0,0.0,46,0.00,,---,0.00,VWS V14.00,2013-03-11 12:59:00,
2013-03-11 06:05:00,12.2,-4.6,23.56,ENE,78,0.0,0.0,46,0.00,,---,0.00,VWS V14.00,2013-03-11 13:05:00,
2013-03-11 06:10:00,12.2,-4.6,23.56,ENE,78,0.0,0.0,46,0.00,,---,0.00,VWS V14.00,2013-03-11 13:10:00,
2013-03-11 06:15:00,12.2,-4.6,23.56,ENE,78,0.0,0.0,46,0.00,,---,0.00,VWS V14.00,2013-03-11 13:15:00,
2013-03-11 06:20:00,12.0,-4.8,23.56,ENE,78,0.0,0.0,46,0.00,,---,0.00,VWS V14.00,2013-03-11 13:20:00,
2013-03-11 06:25:00,11.8,-4.9,23.56,ENE,78,0.0,0.0,46,0.00,,---,0.00,VWS V14.00,2013-03-11 13:25:00,
2013-03-11 06:31:00,11.8,-4.9,23.56,ENE,78,0.0,0.0,46,0.00,,---,0.00,VWS V14.00,2013-03-11 13:31:00,
2013-03-11 06:36:00,11.8,-4.9,23.56,ENE,78,0.0,0.0,46,0.00,,---,0.00,VWS V14.00,2013-03-11 13:36:00,
2013-03-11 06:41:00,11.7,-5.1,23.54,ENE,78,0.0,0.0,46,0.00,,---,0.00,VWS V14.00,2013-03-11 13:41:00,
2013-03-11 06:47:00,11.7,-5.1,23.54,ENE,78,0.0,0.0,46,0.00,,---,0.00,VWS V14.00,2013-03-11 13:47:00,
2013-03-11 06:52:00,11.5,-5.3,23.54,ENE,78,0.0,0.0,46,0.00,,---,0.00,VWS V14.00,2013-03-11 13:52:00,
2013-03-11 06:57:00,11.7,-5.1,23.56,ENE,78,0.0,0.0,46,0.00,,---,0.00,VWS V14.00,2013-03-11 13:57:00,
2013-03-11 07:02:00,11.7,-5.1,23.56,ENE,78,0.0,0.0,46,0.00,,---,0.00,VWS V14.00,2013-03-11 14:02:00,
2013-03-11 07:08:00,11.7,-5.1,23.56,ENE,78,0.0,0.0,46,0.00,,---,0.00,VWS V14.00,2013-03-11 14:08:00,
2013-03-11 07:13:00,11.7,-5.1,23.56,ENE,78,0.0,0.0,46,0.00,,---,0.00,VWS V14.00,2013-03-11 14:13:00,
2013-03-11 07:18:00,11.8,-4.9,23.56,ENE,78,0.0,0.0,46,0.00,,---,0.00,VWS V14.00,2013-03-11 14:18:00,
2013-03-11 07:23:00,12.2,-4.6,23.56,ENE,78,0.0,0.0,46,0.00,,---,0.00,VWS V14.00,2013-03-11 14:23:00,
2013-03-11 07:28:00,12.6,-4.3,23.56,ENE,78,0.0,0.0,46,0.00,,---,0.00,VWS V14.00,2013-03-11 14:28:00,
2013-03-11 07:34:00,12.9,-4.0,23.56,ENE,78,0.0,0.0,46,0.00,,---,0.00,VWS V14.00,2013-03-11 14:34:00,
2013-03-11 07:39:00,13.5,-3.5,23.56,ENE,78,0.0,0.0,46,0.00,,---,0.00,VWS V14.00,2013-03-11 14:39:00,
2013-03-11 07:44:00,14.2,-2.8,23.54,ENE,78,0.0,0.0,46,0.00,,---,0.00,VWS V14.00,2013-03-11 14:44:00,
2013-03-11 07:49:00,14.7,-2.3,23.54,ENE,78,0.0,0.0,46,0.00,,---,0.00,VWS V14.00,2013-03-11 14:49:00,
2013-03-11 07:54:00,15.3,-1.8,23.54,ENE,78,0.0,0.0,46,0.00,,---,0.00,VWS V14.00,2013-03-11 14:54:00,
2013-03-11 08:00:00,16.2,-1.0,23.56,ENE,78,0.0,0.0,46,0.00,,---,0.00,VWS V14.00,2013-03-11 15:00:00,
2013-03-11 08:05:00,17.1,-0.1,23.56,ENE,78,0.0,0.0,46,0.00,,---,0.00,VWS V14.00,2013-03-11 15:05:00,
2013-03-11 08:10:00,18.1,0.4,23.56,ENE,78,0.0,0.0,45,0.00,,---,0.00,VWS V14.00,2013-03-11 15:10:00,
2013-03-11 08:15:00,19.2,1.8,23.54,ENE,78,0.0,0.0,46,0.00,,---,0.00,VWS V14.00,2013-03-11 15:15:00,
2013-03-11 08:20:00,20.3,2.4,23.54,ENE,78,0.0,0.0,45,0.00,,---,0.00,VWS V14.00,2013-03-11 15:20:00,
2013-03-11 08:26:00,21.2,3.2,23.54,ENE,78,0.0,0.0,45,0.00,,---,0.00,VWS V14.00,2013-03-11 15:26:00,
2013-03-11 08:31:00,22.3,4.2,23.54,ENE,78,0.0,0.0,45,0.00,,---,0.00,VWS V14.00,2013-03-11 15:31:00,
2013-03-11 08:36:00,23.4,4.7,23.54,ENE,78,0.0,0.0,44,0.00,,---,0.00,VWS V14.00,2013-03-11 15:36:00,
2013-03-11 08:41:00,24.4,5.7,23.56,ENE,78,0.0,0.0,44,0.00,,---,0.00,VWS V14.00,2013-03-11 15:41:00,
2013-03-11 08:46:00,25.5,6.7,23.56,ENE,78,0.0,0.0,44,0.00,,---,0.00,VWS V14.00,2013-03-11 15:46:00,
2013-03-11 08:51:00,27.0,7.5,23.56,ENE,78,0.0,0.0,43,0.00,,---,0.00,VWS V14.00,2013-03-11 15:51:00,
2013-03-11 08:56:00,28.2,8.1,23.56,ENE,78,0.0,0.0,42,0.00,,---,0.00,VWS V14.00,2013-03-11 15:56:00,
2013-03-11 09:02:00,29.7,9.4,23.56,ENE,78,0.0,0.0,42,0.00,,---,0.00,VWS V14.00,2013-03-11 16:02:00,
2013-03-11 09:07:00,31.3,10.3,23.56,ENE,78,0.0,0.0,41,0.00,,---,0.00,VWS V14.00,2013-03-11 16:07:00,
2013-03-11 09:12:00,32.7,11.6,23.56,ENE,78,0.0,0.0,41,0.00,,---,0.00,VWS V14.00,2013-03-11 16:12:00,
2013-03-11 09:17:00,33.6,12.4,23.56,ENE,78,0.0,0.0,41,0.00,,---,0.00,VWS V14.00,2013-03-11 16:17:00,
2013-03-11 09:22:00,34.9,13.0,23.56,ENE,78,0.0,0.0,40,0.00,,---,0.00,VWS V14.00,2013-03-11 16:22:00,
2013-03-11 09:27:00,35.8,13.8,23.56,ENE,78,0.0,0.0,40,0.00,,---,0.00,VWS V14.00,2013-03-11 16:27:00,
2013-03-11 09:32:00,36.7,14.6,23.56,East,93,0.0,0.0,40,0.00,,---,0.00,VWS V14.00,2013-03-11 16:32:00,
2013-03-11 09:38:00,37.4,14.7,23.56,East,94,0.0,0.0,39,0.00,,---,0.00,VWS V14.00,2013-03-11 16:38:00,
2013-03-11 09:43:00,38.3,15.5,23.56,East,95,0.0,0.0,39,0.00,,---,0.00,VWS V14.00,2013-03-11 16:43:00,
2013-03-11 09:48:00,39.2,16.3,23.56,ESE,104,0.0,0.0,39,0.00,,---,0.00,VWS V14.00,2013-03-11 16:48:00,
2013-03-11 09:53:00,40.1,17.1,23.56,North,8,0.0,0.0,39,0.00,,---,0.00,VWS V14.00,2013-03-11 16:53:00,
2013-03-11 09:59:00,41.0,18.0,23.56,ENE,58,4.0,4.0,39,0.00,,---,0.00,VWS V14.00,2013-03-11 16:59:00,
2013-03-11 10:04:00,41.9,18.8,23.56,ESE,120,2.7,2.7,39,0.00,,---,0.00,VWS V14.00,2013-03-11 17:04:00,
2013-03-11 10:09:00,42.8,19.0,23.56,ESE,110,4.0,6.3,38,0.00,,---,0.00,VWS V14.00,2013-03-11 17:09:00,
2013-03-11 10:14:00,43.7,19.8,23.56,NE,43,3.1,3.6,38,0.00,,---,0.00,VWS V14.00,2013-03-11 17:14:00,
2013-03-11 10:20:00,44.4,20.4,23.56,NE,44,2.7,3.6,38,0.00,,---,0.00,VWS V14.00,2013-03-11 17:20:00,
2013-03-11 10:25:00,45.3,21.2,23.56,East,94,3.6,4.0,38,0.00,,---,0.00,VWS V14.00,2013-03-11 17:25:00,
2013-03-11 10:30:00,46.0,21.9,23.56,ENE,75,2.7,4.0,38,0.00,,---,0.00,VWS V14.00,2013-03-11 17:30:00,
2013-03-11 10:35:00,46.4,21.6,23.56,NE,43,3.6,4.0,37,0.00,,---,0.00,VWS V14.00,2013-03-11 17:35:00,
2013-03-11 10:40:00,46.9,22.0,23.56,SSE,147,2.2,2.7,37,0.00,,---,0.00,VWS V14.00,2013-03-11 17:40:00,
2013-03-11 10:46:00,47.7,22.7,23.56,East,98,3.6,4.9,37,0.00,,---,0.00,VWS V14.00,2013-03-11 17:46:00,
2013-03-11 10:51:00,48.2,23.2,23.56,SSE,154,4.9,5.4,37,0.00,,---,0.00,VWS V14.00,2013-03-11 17:51:00,
2013-03-11 10:57:00,48.7,23.6,23.56,ESE,106,0.0,0.0,37,0.00,,---,0.00,VWS V14.00,2013-03-11 17:57:00,
2013-03-11 11:02:00,48.9,23.8,23.56,East,100,2.2,4.5,37,0.00,,---,0.00,VWS V14.00,2013-03-11 18:02:00,
2013-03-11 11:07:00,49.8,24.6,23.56,SSE,147,2.7,3.1,37,0.00,,---,0.00,VWS V14.00,2013-03-11 18:07:00,
2013-03-11 11:12:00,50.2,24.9,23.56,East,89,2.7,3.1,37,0.00,,---,0.00,VWS V14.00,2013-03-11 18:12:00,
2013-03-11 11:17:00,50.4,25.1,23.56,ESE,107,2.2,3.1,37,0.00,,---,0.00,VWS V14.00,2013-03-11 18:17:00,
2013-03-11 11:22:00,50.7,25.4,23.56,East,88,3.1,3.1,37,0.00,,---,0.00,VWS V14.00,2013-03-11 18:22:00,
2013-03-11 11:28:00,51.1,25.7,23.54,ESE,102,2.2,2.7,37,0.00,,---,0.00,VWS V14.00,2013-03-11 18:28:00,
2013-03-11 11:33:00,51.8,25.7,23.54,SSE,154,0.0,2.2,36,0.00,,---,0.00,VWS V14.00,2013-03-11 18:33:00,
2013-03-11 11:38:00,52.3,26.2,23.54,SSE,149,3.6,4.9,36,0.00,,---,0.00,VWS V14.00,2013-03-11 18:38:00,
2013-03-11 11:43:00,52.3,26.2,23.54,ENE,76,0.0,0.0,36,0.00,,---,0.00,VWS V14.00,2013-03-11 18:43:00,
2013-03-11 11:48:00,52.3,26.2,23.54,East,94,5.4,5.4,36,0.00,,---,0.00,VWS V14.00,2013-03-11 18:48:00,
2013-03-11 11:54:00,52.2,26.0,23.54,NNE,23,3.1,4.0,36,0.00,,---,0.00,VWS V14.00,2013-03-11 18:54:00,
2013-03-11 11:59:00,52.9,26.7,23.54,ESE,105,0.0,0.0,36,0.00,,---,0.00,VWS V14.00,2013-03-11 18:59:00,
2013-03-11 12:04:00,53.6,27.3,23.54,SSE,149,6.3,6.3,36,0.00,,---,0.00,VWS V14.00,2013-03-11 19:04:00,
2013-03-11 12:09:00,54.0,27.6,23.54,ENE,61,4.5,4.5,36,0.00,,---,0.00,VWS V14.00,2013-03-11 19:09:00,
2013-03-11 12:14:00,53.8,27.5,23.54,East,91,3.6,3.6,36,0.00,,---,0.00,VWS V14.00,2013-03-11 19:14:00,
2013-03-11 12:19:00,53.8,27.5,23.54,SE,135,0.0,3.1,36,0.00,,---,0.00,VWS V14.00,2013-03-11 19:19:00,
2013-03-11 12:24:00,53.8,27.5,23.54,ENE,78,2.2,3.1,36,0.00,,---,0.00,VWS V14.00,2013-03-11 19:24:00,
2013-03-11 12:29:00,53.8,27.5,23.54,SSE,148,3.1,3.1,36,0.00,,---,0.00,VWS V14.00,2013-03-11 19:29:00,
2013-03-11 12:35:00,54.1,27.8,23.54,ENE,63,4.5,4.5,36,0.00,,---,0.00,VWS V14.00,2013-03-11 19:35:00,
2013-03-11 12:40:00,54.3,28.0,23.54,SE,139,0.0,3.1,36,0.00,,---,0.00,VWS V14.00,2013-03-11 19:40:00,
2013-03-11 12:45:00,55.0,28.6,23.51,East,99,2.7,2.7,36,0.00,,---,0.00,VWS V14.00,2013-03-11 19:45:00,
2013-03-11 12:50:00,55.9,28.7,23.51,SSE,152,4.9,4.9,35,0.00,,---,0.00,VWS V14.00,2013-03-11 19:50:00,
2013-03-11 12:55:00,55.9,28.7,23.51,SE,136,2.7,3.1,35,0.00,,---,0.00,VWS V14.00,2013-03-11 19:55:00,
2013-03-11 13:01:00,56.3,29.0,23.51,SSE,148,0.0,0.0,35,0.00,,---,0.00,VWS V14.00,2013-03-11 20:01:00,
2013-03-11 13:06:00,56.3,29.0,23.51,SSW,198,2.7,5.4,35,0.00,,---,0.00,VWS V14.00,2013-03-11 20:06:00,
2013-03-11 13:11:00,56.5,29.2,23.51,North,2,0.0,0.0,35,0.00,,---,0.00,VWS V14.00,2013-03-11 20:11:00,
2013-03-11 13:16:00,57.2,29.8,23.51,WSW,238,3.1,3.1,35,0.00,,---,0.00,VWS V14.00,2013-03-11 20:16:00,
2013-03-11 13:22:00,57.6,30.1,23.51,NNW,345,4.0,4.0,35,0.00,,---,0.00,VWS V14.00,2013-03-11 20:22:00,
2013-03-11 13:27:00,57.2,29.8,23.51,SSW,196,0.0,2.2,35,0.00,,---,0.00,VWS V14.00,2013-03-11 20:27:00,
2013-03-11 13:32:00,56.8,29.5,23.51,North,353,0.0,0.0,35,0.00,,---,0.00,VWS V14.00,2013-03-11 20:32:00,
2013-03-11 13:37:00,56.3,29.0,23.51,West,269,3.6,3.6,35,0.00,,---,0.00,VWS V14.00,2013-03-11 20:37:00,
2013-03-11 13:43:00,55.4,28.2,23.51,SW,234,0.0,3.1,35,0.00,,---,0.00,VWS V14.00,2013-03-11 20:43:00,
2013-03-11 13:48:00,54.5,28.1,23.51,NW,304,4.0,5.4,36,0.00,,---,0.00,VWS V14.00,2013-03-11 20:48:00,
2013-03-11 13:53:00,53.6,27.3,23.51,West,267,4.0,5.8,36,0.00,,---,0.00,VWS V14.00,2013-03-11 20:53:00,
2013-03-11 13:58:00,53.1,26.8,23.51,WSW,242,3.6,3.6,36,0.00,,---,0.00,VWS V14.00,2013-03-11 20:58:00,
2013-03-11 14:03:00,52.7,26.5,23.51,SW,235,4.0,4.0,36,0.00,,---,0.00,VWS V14.00,2013-03-11 21:03:00,
2013-03-11 14:08:00,52.5,26.4,23.51,West,277,3.6,3.6,36,0.00,,---,0.00,VWS V14.00,2013-03-11 21:08:00,
2013-03-11 14:13:00,52.7,26.5,23.51,SW,229,4.0,4.0,36,0.00,,---,0.00,VWS V14.00,2013-03-11 21:13:00,
2013-03-11 14:18:00,52.5,26.4,23.51,SW,232,4.9,4.9,36,0.00,,---,0.00,VWS V14.00,2013-03-11 21:18:00,
2013-03-11 14:24:00,52.5,26.4,23.51,WSW,249,3.1,5.8,36,0.00,,---,0.00,VWS V14.00,2013-03-11 21:24:00,
2013-03-11 14:29:00,52.5,26.4,23.51,SW,226,3.1,4.0,36,0.00,,---,0.00,VWS V14.00,2013-03-11 21:29:00,
2013-03-11 14:34:00,52.3,26.2,23.51,West,262,0.0,0.0,36,0.00,,---,0.00,VWS V14.00,2013-03-11 21:34:00,
2013-03-11 14:39:00,52.5,26.4,23.51,NW,314,8.1,8.1,36,0.00,,---,0.00,VWS V14.00,2013-03-11 21:39:00,
2013-03-11 14:45:00,52.3,26.2,23.51,SSW,201,3.1,3.6,36,0.00,,---,0.00,VWS V14.00,2013-03-11 21:45:00,
2013-03-11 14:50:00,52.7,26.5,23.51,WNW,294,2.7,3.6,36,0.00,,---,0.00,VWS V14.00,2013-03-11 21:50:00,
2013-03-11 14:55:00,52.9,26.7,23.51,SW,217,5.4,5.4,36,0.00,,---,0.00,VWS V14.00,2013-03-11 21:55:00,
2013-03-11 15:00:00,53.1,26.8,23.48,SW,229,7.6,7.6,36,0.00,,---,0.00,VWS V14.00,2013-03-11 22:00:00,
2013-03-11 15:05:00,53.4,27.1,23.48,WSW,257,6.3,6.7,36,0.00,,---,0.00,VWS V14.00,2013-03-11 22:05:00,
2013-03-11 15:11:00,53.6,27.3,23.48,SW,235,0.0,0.0,36,0.00,,---,0.00,VWS V14.00,2013-03-11 22:11:00,
2013-03-11 15:17:00,53.6,27.3,23.48,West,278,5.8,5.8,36,0.00,,---,0.00,VWS V14.00,2013-03-11 22:17:00,
2013-03-11 15:22:00,53.4,27.1,23.48,West,273,2.7,2.7,36,0.00,,---,0.00,VWS V14.00,2013-03-11 22:22:00,
2013-03-11 15:27:00,53.2,27.0,23.51,NW,314,8.3,8.3,36,0.00,,---,0.00,VWS V14.00,2013-03-11 22:27:00,
2013-03-11 15:32:00,53.1,26.8,23.51,West,277,3.6,4.0,36,0.00,,---,0.00,VWS V14.00,2013-03-11 22:32:00,
2013-03-11 15:37:00,53.2,27.0,23.51,NNW,330,3.6,3.6,36,0.00,,---,0.00,VWS V14.00,2013-03-11 22:37:00,
2013-03-11 15:42:00,53.4,27.1,23.48,NW,311,5.8,8.1,36,0.00,,---,0.00,VWS V14.00,2013-03-11 22:42:00,
2013-03-11 15:48:00,53.4,27.1,23.48,West,275,3.1,4.0,36,0.00,,---,0.00,VWS V14.00,2013-03-11 22:48:00,
2013-03-11 15:53:00,53.8,27.5,23.48,WSW,252,2.7,3.6,36,0.00,,---,0.00,VWS V14.00,2013-03-11 22:53:00,
2013-03-11 15:58:00,54.1,27.8,23.48,West,271,2.7,3.6,36,0.00,,---,0.00,VWS V14.00,2013-03-11 22:58:00,
2013-03-11 16:03:00,54.7,28.3,23.48,WSW,251,6.3,8.7,36,0.00,,---,0.00,VWS V14.00,2013-03-11 23:03:00,
2013-03-11 16:08:00,55.0,28.6,23.48,SW,215,5.8,5.8,36,0.00,,---,0.00,VWS V14.00,2013-03-11 23:08:00,
2013-03-11 16:13:00,55.4,28.2,23.48,WSW,251,6.3,6.3,35,0.00,,---,0.00,VWS V14.00,2013-03-11 23:13:00,
2013-03-11 16:18:00,56.1,28.9,23.48,SW,223,2.7,4.9,35,0.00,,---,0.00,VWS V14.00,2013-03-11 23:18:00,
2013-03-11 16:24:00,56.8,29.5,23.48,WNW,292,4.9,6.3,35,0.00,,---,0.00,VWS V14.00,2013-03-11 23:24:00,
2013-03-11 16:29:00,57.2,29.8,23.51,WNW,287,0.0,5.4,35,0.00,,---,0.00,VWS V14.00,2013-03-11 23:29:00,
2013-03-11 16:34:00,57.4,30.0,23.51,NW,306,0.0,0.0,35,0.00,,---,0.00,VWS V14.00,2013-03-11 23:34:00,
2013-03-11 16:39:00,57.6,30.1,23.51,West,280,0.0,0.0,35,0.00,,---,0.00,VWS V14.00,2013-03-11 23:39:00,
2013-03-11 16:44:00,57.9,30.5,23.51,WSW,244,3.1,5.8,35,0.00,,---,0.00,VWS V14.00,2013-03-11 23:44:00,
2013-03-11 16:50:00,58.1,30.6,23.51,SSW,198,3.1,3.1,35,0.00,,---,0.00,VWS V14.00,2013-03-11 23:50:00,
2013-03-11 16:55:00,57.7,30.3,23.51,SSW,209,5.4,5.4,35,0.00,,---,0.00,VWS V14.00,2013-03-11 23:55:00,
2013-03-11 17:00:00,57.2,29.8,23.51,SW,227,3.6,3.6,35,0.00,,---,0.00,VWS V14.00,2013-03-12 00:00:00,
2013-03-11 17:05:00,56.8,29.5,23.51,West,267,2.7,2.7,35,0.00,,---,0.00,VWS V14.00,2013-03-12 00:05:00,
2013-03-11 17:10:00,56.7,29.3,23.51,SSW,205,2.7,3.1,35,0.00,,---,0.00,VWS V14.00,2013-03-12 00:10:00,
2013-03-11 17:15:00,55.8,28.5,23.48,NW,305,2.2,2.2,35,0.00,,---,0.00,VWS V14.00,2013-03-12 00:15:00,
2013-03-11 17:21:00,54.9,28.4,23.48,WSW,258,0.0,2.7,36,0.00,,---,0.00,VWS V14.00,2013-03-12 00:21:00,
2013-03-11 17:26:00,54.1,27.8,23.48,South,191,3.1,4.0,36,0.00,,---,0.00,VWS V14.00,2013-03-12 00:26:00,
2013-03-11 17:31:00,53.4,27.1,23.51,SSW,199,3.1,4.0,36,0.00,,---,0.00,VWS V14.00,2013-03-12 00:31:00,
2013-03-11 17:36:00,52.3,26.2,23.51,SW,222,0.0,0.0,36,0.00,,---,0.00,VWS V14.00,2013-03-12 00:36:00,
2013-03-11 17:42:00,51.6,26.2,23.51,West,263,0.0,3.6,37,0.00,,---,0.00,VWS V14.00,2013-03-12 00:42:00,
2013-03-11 17:47:00,50.9,25.6,23.51,WSW,244,2.2,2.7,37,0.00,,---,0.00,VWS V14.00,2013-03-12 00:47:00,
2013-03-11 17:53:00,50.4,25.1,23.51,West,261,3.1,4.9,37,0.00,,---,0.00,VWS V14.00,2013-03-12 00:53:00,
2013-03-11 17:58:00,49.6,24.5,23.51,South,181,0.0,0.0,37,0.00,,---,0.00,VWS V14.00,2013-03-12 00:58:00,
2013-03-11 18:03:00,49.1,24.0,23.51,WSW,244,0.0,0.0,37,0.00,,---,0.00,VWS V14.00,2013-03-12 01:03:00,
2013-03-11 18:08:00,48.6,23.5,23.51,SSW,209,3.6,4.0,37,0.00,,---,0.00,VWS V14.00,2013-03-12 01:08:00,
2013-03-11 18:13:00,47.7,22.7,23.51,SSW,209,0.0,0.0,37,0.00,,---,0.00,VWS V14.00,2013-03-12 01:13:00,
2013-03-11 18:18:00,46.8,21.9,23.51,SSW,209,0.0,0.0,37,0.00,,---,0.00,VWS V14.00,2013-03-12 01:18:00,
2013-03-11 18:24:00,45.9,21.7,23.51,SSW,209,0.0,0.0,38,0.00,,---,0.00,VWS V14.00,2013-03-12 01:24:00,
2013-03-11 18:29:00,44.8,20.7,23.51,SSW,209,0.0,0.0,38,0.00,,---,0.00,VWS V14.00,2013-03-12 01:29:00,
2013-03-11 18:34:00,43.7,19.8,23.51,SSW,209,0.0,0.0,38,0.00,,---,0.00,VWS V14.00,2013-03-12 01:34:00,
2013-03-11 18:39:00,43.0,19.1,23.51,SSW,209,0.0,0.0,38,0.00,,---,0.00,VWS V14.00,2013-03-12 01:39:00,
2013-03-11 18:44:00,41.9,18.8,23.51,SSW,209,0.0,0.0,39,0.00,,---,0.00,VWS V14.00,2013-03-12 01:44:00,
2013-03-11 18:50:00,41.2,18.1,23.51,SSW,209,0.0,0.0,39,0.00,,---,0.00,VWS V14.00,2013-03-12 01:50:00,
2013-03-11 18:55:00,40.5,17.5,23.51,SSW,209,0.0,0.0,39,0.00,,---,0.00,VWS V14.00,2013-03-12 01:55:00,
2013-03-11 19:00:00,39.7,16.8,23.51,SSW,209,0.0,0.0,39,0.00,,---,0.00,VWS V14.00,2013-03-12 02:00:00,
2013-03-11 19:05:00,39.2,16.3,23.51,SSW,209,0.0,0.0,39,0.00,,---,0.00,VWS V14.00,2013-03-12 02:05:00,
2013-03-11 19:10:00,38.5,15.7,23.51,SSW,209,0.0,0.0,39,0.00,,---,0.00,VWS V14.00,2013-03-12 02:10:00,
2013-03-11 19:15:00,37.9,15.2,23.51,SSW,209,0.0,0.0,39,0.00,,---,0.00,VWS V14.00,2013-03-12 02:15:00,
2013-03-11 19:21:00,37.4,14.7,23.51,SSW,209,0.0,0.0,39,0.00,,---,0.00,VWS V14.00,2013-03-12 02:21:00,
2013-03-11 19:26:00,36.9,14.8,23.51,SSE,167,0.0,0.0,40,0.00,,---,0.00,VWS V14.00,2013-03-12 02:26:00,
2013-03-11 19:31:00,36.5,14.5,23.51,SSE,167,0.0,0.0,40,0.00,,---,0.00,VWS V14.00,2013-03-12 02:31:00,
2013-03-11 19:36:00,36.1,14.2,23.51,SSE,167,0.0,0.0,40,0.00,,---,0.00,VWS V14.00,2013-03-12 02:36:00,
2013-03-11 19:41:00,35.8,13.8,23.51,SSE,167,0.0,0.0,40,0.00,,---,0.00,VWS V14.00,2013-03-12 02:41:00,
2013-03-11 19:47:00,35.4,13.5,23.51,SSE,167,0.0,0.0,40,0.00,,---,0.00,VWS V14.00,2013-03-12 02:47:00,
2013-03-11 19:52:00,35.1,13.2,23.51,SSE,167,0.0,0.0,40,0.00,,---,0.00,VWS V14.00,2013-03-12 02:52:00,
2013-03-11 19:57:00,34.9,13.0,23.51,SSE,167,0.0,0.0,40,0.00,,---,0.00,VWS V14.00,2013-03-12 02:57:00,
2013-03-11 20:02:00,34.5,12.7,23.51,SSE,167,0.0,0.0,40,0.00,,---,0.00,VWS V14.00,2013-03-12 03:02:00,
2013-03-11 20:07:00,34.2,12.4,23.51,South,169,0.0,0.0,40,0.00,,---,0.00,VWS V14.00,2013-03-12 03:07:00,
2013-03-11 20:12:00,33.8,12.1,23.54,South,169,0.0,0.0,40,0.00,,---,0.00,VWS V14.00,2013-03-12 03:12:00,
2013-03-11 20:17:00,33.6,12.4,23.54,South,169,0.0,0.0,41,0.00,,---,0.00,VWS V14.00,2013-03-12 03:17:00,
2013-03-11 20:23:00,33.3,12.1,23.54,South,169,0.0,0.0,41,0.00,,---,0.00,VWS V14.00,2013-03-12 03:23:00,
2013-03-11 20:28:00,33.1,12.0,23.54,South,169,0.0,0.0,41,0.00,,---,0.00,VWS V14.00,2013-03-12 03:28:00,
2013-03-11 20:33:00,32.7,11.6,23.54,South,169,0.0,0.0,41,0.00,,---,0.00,VWS V14.00,2013-03-12 03:33:00,
2013-03-11 20:38:00,32.4,11.3,23.54,South,169,0.0,0.0,41,0.00,,---,0.00,VWS V14.00,2013-03-12 03:38:00,
2013-03-11 20:43:00,32.2,11.1,23.54,South,169,0.0,0.0,41,0.00,,---,0.00,VWS V14.00,2013-03-12 03:43:00,
2013-03-11 20:48:00,31.8,10.8,23.54,South,169,0.0,0.0,41,0.00,,---,0.00,VWS V14.00,2013-03-12 03:48:00,
2013-03-11 20:53:00,31.5,10.5,23.54,South,169,0.0,0.0,41,0.00,,---,0.00,VWS V14.00,2013-03-12 03:53:00,
2013-03-11 20:59:00,31.1,10.2,23.54,South,169,0.0,0.0,41,0.00,,---,0.00,VWS V14.00,2013-03-12 03:59:00,
2013-03-11 21:00:00,31.1,10.2,23.54,South,169,0.0,0.0,41,0.00,,---,0.00,VWS V14.00,2013-03-12 04:00:00,
2013-03-11 21:02:00,31.1,10.2,23.54,South,169,0.0,0.0,41,0.00,,---,0.00,VWS V14.00,2013-03-12 04:02:00,
2013-03-11 21:08:00,30.7,9.8,23.54,South,169,0.0,0.0,41,0.00,,---,0.00,VWS V14.00,2013-03-12 04:08:00,
2013-03-11 21:13:00,30.6,9.7,23.54,South,169,0.0,0.0,41,0.00,,---,0.00,VWS V14.00,2013-03-12 04:13:00,
2013-03-11 21:18:00,30.2,9.4,23.54,South,169,0.0,0.0,41,0.00,,---,0.00,VWS V14.00,2013-03-12 04:18:00,
2013-03-11 21:23:00,30.2,9.4,23.54,South,169,0.0,0.0,41,0.00,,---,0.00,VWS V14.00,2013-03-12 04:23:00,
2013-03-11 21:28:00,30.0,9.2,23.54,South,169,0.0,0.0,41,0.00,,---,0.00,VWS V14.00,2013-03-12 04:28:00,
2013-03-11 21:34:00,29.8,9.0,23.54,South,169,0.0,0.0,41,0.00,,---,0.00,VWS V14.00,2013-03-12 04:34:00,
2013-03-11 21:39:00,29.7,8.9,23.54,South,169,0.0,0.0,41,0.00,,---,0.00,VWS V14.00,2013-03-12 04:39:00,
2013-03-11 21:44:00,29.5,8.7,23.54,South,169,0.0,0.0,41,0.00,,---,0.00,VWS V14.00,2013-03-12 04:44:00,
2013-03-11 21:49:00,29.3,8.5,23.54,South,169,0.0,0.0,41,0.00,,---,0.00,VWS V14.00,2013-03-12 04:49:00,
2013-03-11 21:54:00,29.1,8.4,23.54,South,169,0.0,0.0,41,0.00,,---,0.00,VWS V14.00,2013-03-12 04:54:00,
2013-03-11 21:59:00,28.9,8.2,23.54,South,169,0.0,0.0,41,0.00,,---,0.00,VWS V14.00,2013-03-12 04:59:00,
2013-03-11 22:04:00,28.8,8.0,23.54,South,169,0.0,0.0,41,0.00,,---,0.00,VWS V14.00,2013-03-12 05:04:00,
2013-03-11 22:10:00,28.8,8.0,23.54,South,169,0.0,0.0,41,0.00,,---,0.00,VWS V14.00,2013-03-12 05:10:00,
2013-03-11 22:15:00,28.6,8.4,23.54,South,169,0.0,0.0,42,0.00,,---,0.00,VWS V14.00,2013-03-12 05:15:00,
2013-03-11 22:20:00,28.4,8.2,23.54,South,169,0.0,0.0,42,0.00,,---,0.00,VWS V14.00,2013-03-12 05:20:00,
2013-03-11 22:25:00,28.0,7.9,23.54,South,169,0.0,0.0,42,0.00,,---,0.00,VWS V14.00,2013-03-12 05:25:00,
2013-03-11 22:30:00,27.9,7.8,23.54,South,169,0.0,0.0,42,0.00,,---,0.00,VWS V14.00,2013-03-12 05:30:00,
2013-03-11 22:35:00,27.9,7.8,23.54,South,169,0.0,0.0,42,0.00,,---,0.00,VWS V14.00,2013-03-12 05:35:00,
2013-03-11 22:41:00,27.9,7.8,23.54,South,169,0.0,0.0,42,0.00,,---,0.00,VWS V14.00,2013-03-12 05:41:00,
2013-03-11 22:46:00,27.7,7.6,23.54,South,169,0.0,0.0,42,0.00,,---,0.00,VWS V14.00,2013-03-12 05:46:00,
2013-03-11 22:51:00,27.5,7.4,23.54,South,169,0.0,0.0,42,0.00,,---,0.00,VWS V14.00,2013-03-12 05:51:00,
2013-03-11 22:56:00,27.3,7.3,23.54,South,169,0.0,0.0,42,0.00,,---,0.00,VWS V14.00,2013-03-12 05:56:00,
2013-03-11 23:01:00,27.1,7.1,23.54,South,169,0.0,0.0,42,0.00,,---,0.00,VWS V14.00,2013-03-12 06:01:00,
2013-03-11 23:07:00,27.1,7.1,23.54,South,169,0.0,0.0,42,0.00,,---,0.00,VWS V14.00,2013-03-12 06:07:00,
2013-03-11 23:12:00,27.0,6.9,23.54,South,169,0.0,0.0,42,0.00,,---,0.00,VWS V14.00,2013-03-12 06:12:00,
2013-03-11 23:17:00,27.0,6.9,23.54,South,169,0.0,0.0,42,0.00,,---,0.00,VWS V14.00,2013-03-12 06:17:00,
2013-03-11 23:22:00,26.8,6.8,23.54,South,169,0.0,0.0,42,0.00,,---,0.00,VWS V14.00,2013-03-12 06:22:00,
2013-03-11 23:27:00,26.8,6.8,23.54,South,169,0.0,0.0,42,0.00,,---,0.00,VWS V14.00,2013-03-12 06:27:00,
2013-03-11 23:32:00,26.4,7.0,23.54,South,169,0.0,0.0,43,0.00,,---,0.00,VWS V14.00,2013-03-12 06:32:00,
2013-03-11 23:37:00,26.2,6.8,23.54,South,169,0.0,0.0,43,0.00,,---,0.00,VWS V14.00,2013-03-12 06:37:00,
2013-03-11 23:43:00,26.1,6.6,23.56,South,169,0.0,0.0,43,0.00,,---,0.00,VWS V14.00,2013-03-12 06:43:00,
2013-03-11 23:48:00,26.1,6.6,23.56,South,169,0.0,0.0,43,0.00,,---,0.00,VWS V14.00,2013-03-12 06:48:00,
2013-03-11 23:53:00,25.9,6.5,23.56,SSE,168,0.0,0.0,43,0.00,,---,0.00,VWS V14.00,2013-03-12 06:53:00,
2013-03-11 23:58:00,25.9,6.5,23.54,South,169,0.0,0.0,43,0.00,,---,0.00,VWS V14.00,2013-03-12 06:58:00,